Regional Weather Roundup
Issued by NWS

Home | Current Version | Previous Version | Graphics & Text | Print | Product List | Glossary On
Versions: 1 2 3 4 5 6 7 8 9 10 11 12 13 14 15 16 17 18 19 20 21 22 23 24 25 26 27 28 29 30 31 32 33 34 35 36 37 38 39 40 41 42 43 44 45 46 47 48 49 50
000
ASUS43 KDTX 212310
RWRMI
MICHIGAN HOURLY REGIONAL WEATHER ROUNDUP
NATIONAL WEATHER SERVICE DETROIT/PONTIAC MI
600 PM EST FRI NOV 21 2014

NOTE: "FAIR" INDICATES FEW OR NO CLOUDS BELOW 12,000 FEET WITH NO
SIGNIFICANT WEATHER AND/OR OBSTRUCTION TO VISIBILITY.

MIZ047>049-052>055-059>063-066>070-074>076-081>083-220000-
SOUTHEAST LOWER MICHIGAN

CITY           SKY/WX    TMP DP  RH WIND       PRES   REMARKS
ADRIAN         CLEAR     22  12  65 SW8       30.43F
ALMA           CLEAR     22  14  71 S6        30.36S
ANN ARBOR      CLEAR     22  12  65 S7        30.41F
BAD AXE        MOCLDY    22  12  66 SW9       30.38R
DETROIT CITY   CLEAR     25  12  58 SW12      30.44F
DETROIT        PTCLDY    21  13  71 S6        30.44F
FLINT          CLEAR     21   9  59 S3        30.39F
GROSSE ILE     CLEAR     25  14  63 S7        30.43F
HILLSDALE      CLEAR     22  12  63 S6        30.38S
HOWELL         CLEAR     23  11  60 S6        30.37F

CITY           SKY/WX    TMP DP  RH WIND       PRES   REMARKS
JACKSON        CLEAR     23  11  60 S8        30.39S
LAMBERTVILLE   CLEAR     27  14  59 S6        30.45S
LANSING        CLEAR     24  12  60 S7        30.38F
LAPEER         NOT AVBL
MASON          CLEAR     22  12  64 CALM      30.38S
MONROE         CLEAR     21  12  68 S6        30.43F
MT. CLEMENS    CLEAR     22  12  64 S10       30.41S
PONTIAC        CLEAR     23  11  60 S9        30.38F
PORT HOPE        N/A     24  11  57 VRB6      30.35S
PORT HURON     PTCLDY    16   9  73 CALM      30.42F
TRI CITIES     CLEAR     23  13  65 S8        30.37F
YPSILANTI      CLEAR     25  13  60 S8        30.43F
$$
MIZ043>046-050>051-056>058-064>065-071>073-077>080-220000-
SOUTHWEST LOWER MICHIGAN

CITY           SKY/WX    TMP DP  RH WIND       PRES   REMARKS
BATTLE CREEK   CLEAR     24  11  57 S7        30.37F
BENTON HARBOR  CLEAR     27  10  49 SE7       30.35F
BIG RAPIDS     PTCLDY    26  17  67 S7        30.30S
COLDWATER      CLEAR     25  13  60 S5        30.38F
HOLLAND        CLEAR     27  13  55 S7        30.36S
GRAND RAPIDS   PTCLDY    22  12  65 S9        30.35F
KALAMAZOO      CLEAR     25  12  58 S6        30.37F
MARSHALL       CLEAR     23  11  61 S5        30.37F
MUSKEGON       PTCLDY    29  16  58 S9        30.34S
$$
MIZ016>042-220000-
NORTHERN LOWER MICHIGAN

CITY           SKY/WX    TMP DP  RH WIND       PRES   REMARKS
ALPENA         CLOUDY    25  11  55 SW9       30.27F
BEAVER ISLAND  PTCLDY    32  23  69 SW16G25   30.18F
BELLAIRE       PTCLDY    26  16  66 S7        30.26F
CADILLAC       PTCLDY    22  16  75 S9        30.24S
CHARLEVOIX     PTCLDY    26  15  65 S8        30.25F
FRANKFORT      PTCLDY    29  20  70 S12G17    30.24F
GAYLORD        PTCLDY    19  12  74 S8        30.21F
GRAYLING       PTCLDY    24  13  63 S8        30.25F
HARBOR SPRINGS PTCLDY    26  15  63 S9G17     30.23F
HOUGHTON LAKE  PTCLDY    23  12  62 S9        30.28S
MANISTEE       PTCLDY    28  16  59 S7        30.27F
OSCODA         CLOUDY    25  12  57 S10       30.31F
PELLSTON       MOCLDY    25  14  63 S9        30.23F
TRAVERSE CITY  MOCLDY    27  14  58 S5        30.25F
$$
MIZ007>008-015-220000-
EASTERN UPPER MICHIGAN

CITY           SKY/WX    TMP DP  RH WIND       PRES   REMARKS
KINROSS        CLOUDY    27  21  80 S12G17    30.16F
MACKINAC ISLAN CLOUDY    27  17  64 S9G21     30.20F
NEWBERRY       CLOUDY    27  19  74 S18G28    30.11F
S. S. MARIE    CLOUDY    25  16  68 S6        30.19R
$$
MIZ004>006-011>014-085-220000-
CENTRAL UPPER MICHIGAN

CITY           SKY/WX    TMP DP  RH WIND       PRES   REMARKS
MANISTIQUE     CLOUDY    30  20  67 SW14G23   30.14F
ESCANABA       PTCLDY    25   5  42 SW15G23   30.14F
MENOMINEE      PTCLDY    27   9  46 SW16G23   30.17F
SAWYER-GWINN   CLEAR     19   7  58 S17       30.03F
$$
MIZ001>003-009>011-084-220000-
WESTERN UPPER MICHIGAN

CITY           SKY/WX    TMP DP  RH WIND       PRES   REMARKS
IRON MOUNTAIN  MOCLDY    20   3  48 S10       30.08F
HOUGHTON       MOCLDY    25   8  48 SW15G23   29.90F
COPPER HARBOR    N/A     30  13  49 W14G29    29.90F
IRONWOOD       PTCLDY    27  10  50 S16G26    29.89S
$$

ABBREVIATIONS USED IN REMARKS
   TC - TEMPERATURE IN CELSIUS
  WCI - WIND CHILL INDEX
   HX - HEAT INDEX
  VSB - VISIBILITY




USA.gov is the U.S. government's official web portal to all federal, state and local government web resources and services.